RH
59 54 52 53 60 64 69 65 66 69 70 70 71 72 73 73 73 74 76 77 77 76 76 78 76 79 59 38 25 17 45 32 18 19 22 24 22 21 18 19 17 16 17 37 40 40 44
68 64 58 55 61 65 69 66 66 69 70 70 70 71 71 71 73 75 77 77 77 77 77 77 77 82 54 37 22 18 16 14 18 22 23 24 26 27 19 19 17 16 25 38 45 48 46
62 67 66 60 59 65 69 65 66 69 69 69 70 71 72 72 75 78 79 78 77 77 77 77 77 74 52 21 30 19 16 17 18 22 25 24 28 25 22 18 17 20 35 26 45 32 40
62 63 69 64 60 64 69 68 68 70 69 69 70 72 74 73 77 81 81 81 81 77 77 78 76 72 42 27 37 17 20 16 18 20 22 25 28 27 22 22 20 20 24 28 45 43 47
64 63 64 74 66 66 71 71 71 71 70 71 72 72 77 79 82 85 84 84 82 78 79 82 55 43 27 27 18 16 17 16 17 20 24 17 24 29 24 25 26 29 29 29 41 53 53
79 71 66 65 71 68 68 70 73 75 73 72 72 71 76 79 80 84 85 85 80 73 44 43 27 36 25 21 16 16 16 16 19 23 24 23 31 33 35 25 26 30 33 56 58 58 62
80 81 82 71 67 70 70 66 72 77 74 71 71 71 74 78 79 81 92 71 56 40 58 23 34 30 22 17 18 16 16 18 20 22 28 30 36 42 42 34 27 31 41 65 72 59 72
75 78 82 79 75 70 69 70 74 78 73 70 73 74 74 77 80 83 87 66 72 75 80 54 48 43 32 21 21 18 16 19 24 29 32 34 40 35 32 28 29 36 48 67 68 58 70
73 75 77 83 81 81 79 75 77 77 79 77 78 75 76 82 82 71 84 78 71 78 82 54 47 35 21 20 26 20 19 23 26 28 32 38 35 31 29 31 32 41 48 49 59 70 74
68 69 71 74 79 83 84 80 75 74 78 79 79 80 83 84 69 76 79 64 75 71 51 27 52 24 19 21 26 17 19 21 27 35 34 35 32 34 37 39 39 44 37 48 62 49 62
68 68 69 68 72 76 82 85 82 75 76 81 78 80 84 79 95 80 66 65 80 41 45 29 27 19 22 18 22 22 19 22 28 32 34 40 34 32 35 41 41 44 40 44 50 59 68
63 64 69 71 70 72 77 82 87 84 82 82 80 80 82 81 89 74 69 81 53 62 36 41 22 25 26 26 26 22 22 22 27 31 31 34 31 32 36 34 35 39 45 50 62 63 81
54 58 63 70 72 67 72 82 85 88 85 83 83 80 83 83 73 75 76 59 68 63 32 33 28 26 28 27 26 26 26 32 37 38 42 36 35 30 32 32 34 44 55 74 72 84 78
60 56 58 65 71 73 74 76 82 83 86 86 84 83 82 81 74 76 80 59 42 36 47 29 28 28 30 26 28 29 27 35 36 37 44 51 40 33 32 39 39 49 56 73 64 86 79
64 62 59 60 66 67 71 76 77 82 86 89 79 90 91 87 90 82 78 86 63 38 38 34 28 33 33 30 27 31 32 37 33 35 47 47 46 32 29 28 34 51 61 56 78 78 84
56 66 61 59 62 66 68 71 77 78 84 87 90 95 91 84 89 90 94 74 60 54 62 43 34 34 37 35 31 35 38 36 33 35 46 47 44 32 30 35 46 44 52 70 81 90 89
57 64 68 62 59 63 65 68 73 74 81 86 87 91 77 86 86 88 98 88 70 62 64 60 33 40 35 38 36 43 42 39 37 38 42 45 52 45 35 45 58 58 68 84 79 78 81
61 64 66 68 63 58 63 65 69 73 82 88 90 98 79 89 92 98 98 76 68 62 55 61 50 36 39 42 41 41 44 41 36 37 44 50 52 58 46 38 42 52 59 73 80 72 91
65 67 67 68 68 60 60 64 67 74 78 99 100 97 91 65 94 99 89 78 67 63 62 60 48 48 40 42 45 42 49 54 47 41 52 48 62 68 50 45 39 52 68 65 70 83 95
63 69 68 67 68 66 58 60 60 70 70 98 100 99 95 98 82 74 69 69 70 56 58 55 56 49 40 49 60 62 51 56 55 50 57 53 57 53 60 49 51 43 71 67 62 87 80
68 69 70 72 70 69 59 56 60 64 80 98 100 97 84 99 98 68 65 52 57 59 57 57 53 52 43 69 67 61 62 57 51 59 59 52 59 54 51 50 38 39 63 67 51 53 53
69 72 70 70 75 67 67 58 58 62 83 99 100 100 98 88 98 78 68 69 57 51 62 56 60 51 46 50 51 66 57 57 50 52 60 60 74 60 77 51 44 41 49 60 52 59 61
68 71 71 70 70 72 68 61 59 62 87 100 100 98 100 87 89 91 86 69 65 57 56 56 50 54 54 47 47 50 53 52 49 52 64 61 75 74 77 59 48 61 46 58 53 51 44
68 71 72 70 69 69 71 71 60 59 79 99 100 100 99 96 98 84 76 75 70 62 58 56 56 65 54 55 54 55 58 58 56 64 62 69 67 77 87 57 71 51 39 38 42 46 44
70 71 72 70 70 70 70 71 70 61 68 99 99 100 100 98 94 86 85 77 71 61 63 59 50 56 52 54 79 82 85 74 75 64 66 64 76 96 76 79 44 31 38 44 45 40 39
72 73 73 72 72 70 73 73 74 70 62 96 98 99 100 99 86 87 94 80 85 88 76 66 55 57 61 75 88 86 88 75 82 75 72 66 69 75 94 67 52 32 45 39 31 47 34
72 72 71 71 70 70 72 74 73 71 69 91 99 98 100 99 87 84 90 99 84 78 84 73 67 74 60 93 94 91 86 65 79 75 86 83 89 78 99 85 63 41 44 39 48 42 42
70 72 72 73 70 69 70 70 74 72 71 91 98 96 98 100 94 78 85 96 93 88 95 83 78 83 93 87 92 88 94 80 72 70 77 78 83 90 90 87 56 43 41 44 48 49 52
67 70 71 72 72 71 70 70 68 74 75 83 100 95 92 100 95 90 92 80 68 78 92 95 95 83 85 93 96 96 93 93 76 91 70 79 72 82 68 69 51 52 50 48 49 48 50
Wind_Speed
5 4 5 6 7 8 9 8 10 11 13 14 15 16 17 18 18 19 18 18 18 18 18 18 17 17 4 3 5 3 9 9 3 2 4 3 3 2 5 5 5 7 8 12 18 21 22
9 7 6 7 8 10 13 6 8 10 12 14 15 16 17 17 18 19 19 19 19 19 17 16 15 16 1 2 2 4 7 7 3 3 3 4 2 0 5 4 4 8 19 10 11 13 13
10 10 8 8 9 11 7 5 8 9 11 13 15 17 18 18 18 19 19 20 19 19 16 14 12 3 0 7 2 5 5 2 2 1 2 0 2 1 3 6 4 11 23 8 10 4 4
9 9 7 9 9 11 12 8 9 9 10 12 14 16 17 18 19 19 19 20 21 19 15 9 6 1 5 3 3 6 1 3 3 2 2 0 1 4 4 3 7 7 6 7 5 6 7
9 9 9 9 10 11 11 7 10 10 9 10 14 16 17 18 18 20 19 21 22 15 9 5 2 2 7 9 2 3 1 2 4 2 2 2 5 4 5 7 6 7 6 7 4 15 2
12 11 10 9 9 12 10 10 11 11 10 9 12 16 17 18 19 19 23 21 12 8 1 2 1 3 5 2 3 4 3 1 2 2 4 8 6 5 5 4 9 6 8 5 5 7 18
17 17 15 11 10 11 11 10 10 12 10 8 12 15 18 19 20 21 13 5 6 5 5 4 2 3 4 8 3 4 3 3 4 8 4 5 9 3 2 2 6 10 9 11 3 4 9
13 16 20 9 11 12 11 11 10 9 9 9 12 14 17 19 21 20 2 4 3 4 6 4 5 4 6 4 4 5 4 4 5 4 2 8 5 2 5 9 18 12 17 4 3 3 7
14 13 16 18 12 13 13 13 10 8 9 9 11 14 17 19 24 4 3 2 7 3 1 6 5 4 4 3 1 3 3 2 6 6 5 7 0 2 9 9 16 5 9 5 7 5 7
13 14 14 15 15 17 16 14 11 9 9 9 9 11 14 21 4 4 1 8 6 0 6 5 4 6 4 3 2 2 1 4 5 7 5 7 4 8 7 7 5 7 5 7 11 4 4
16 16 16 14 12 13 15 20 13 11 10 8 8 10 11 6 4 3 6 9 6 5 5 2 3 1 3 6 2 2 3 5 5 4 5 3 4 6 7 3 3 5 7 7 5 5 6
17 16 16 16 14 12 13 15 21 12 9 8 7 8 10 3 2 4 9 8 4 10 8 3 4 4 5 2 1 2 1 6 5 7 8 3 1 3 3 5 5 8 8 8 5 4 3
15 16 17 17 16 14 12 9 14 17 12 9 7 7 6 1 4 5 7 4 7 6 4 5 5 5 4 4 3 2 3 3 7 7 3 5 4 3 4 7 5 7 6 3 4 4 5
15 16 15 16 16 14 15 10 11 14 16 13 8 6 5 5 3 5 4 6 5 5 6 3 4 6 6 6 3 3 5 3 1 6 5 6 2 4 1 4 7 3 6 6 6 4 2
17 15 14 14 15 15 15 10 9 10 15 15 4 3 3 5 3 3 5 3 10 7 4 7 4 5 4 4 6 4 5 6 6 6 7 6 2 1 3 3 4 3 2 3 7 3 3
16 17 15 14 12 14 15 13 9 11 13 18 1 3 5 1 6 3 5 7 4 3 3 2 7 5 7 7 5 6 8 5 5 5 3 7 7 2 4 5 7 3 5 4 4 4 3
18 18 15 16 13 12 13 14 10 11 12 15 1 3 4 3 2 2 4 7 5 6 4 4 5 5 6 8 8 6 9 1 5 4 3 5 6 2 5 3 8 3 2 6 5 4 5
17 18 17 13 15 13 12 12 12 9 10 4 2 2 3 2 3 0 4 5 3 3 1 4 2 4 7 8 6 5 9 4 7 7 7 1 6 4 3 1 4 4 6 6 7 6 1
17 18 17 16 14 14 11 10 11 8 7 2 2 3 2 4 3 3 4 4 2 2 2 2 2 2 3 7 5 4 6 4 5 6 9 7 1 4 5 6 1 4 5 5 6 4 6
17 19 18 17 15 14 12 12 10 8 4 1 2 1 4 3 2 5 4 4 4 3 4 3 3 2 2 2 5 6 4 1 1 3 7 7 4 7 9 6 5 6 6 8 7 4 5
19 18 18 17 13 14 12 11 10 7 4 1 3 4 3 5 7 4 4 2 7 5 4 3 3 4 2 3 3 4 3 3 5 4 4 5 4 4 3 3 4 5 9 13 11 6 7
18 17 17 16 13 11 14 11 10 8 8 2 2 2 1 2 5 14 9 5 5 5 5 5 4 1 3 3 5 9 8 4 6 1 4 2 3 3 3 1 2 3 8 14 13 5 7
18 17 16 16 14 12 13 13 10 9 6 1 1 1 2 3 5 8 8 11 5 7 4 5 5 4 1 3 3 4 2 6 6 10 6 7 7 4 3 1 1 7 14 16 10 7 12
18 18 16 16 15 14 12 14 12 12 8 2 0 1 2 3 7 8 7 12 15 9 10 2 5 2 3 5 5 8 9 9 8 5 3 8 7 3 3 2 1 8 1 10 17 7 12
18 18 16 16 16 15 14 13 15 13 11 2 2 1 2 3 3 6 9 7 9 10 8 6 7 2 2 4 4 5 6 6 6 3 3 1 6 4 6 4 7 6 6 9 11 15 19
18 17 16 14 12 14 13 13 13 16 14 4 3 2 1 1 3 0 5 6 4 4 4 5 4 2 6 2 3 6 6 6 4 3 4 5 6 7 4 6 9 6 1 6 5 9 8
18 16 16 15 13 13 12 13 11 13 17 5 3 5 1 2 3 2 2 5 5 3 3 3 4 3 6 2 2 4 5 5 8 12 7 4 4 6 3 3 9 8 1 3 7 10 3
17 16 16 16 14 14 14 14 11 11 16 5 3 7 4 1 4 3 2 2 4 4 2 2 3 2 3 5 4 5 3 7 5 8 9 8 8 5 3 4 8 8 4 9 6 4 3
19 16 16 16 16 15 15 15 14 14 14 12 2 6 3 2 4 3 6 6 6 12 3 3 3 1 4 4 1 3 2 1 6 5 2 4 9 9 10 9 4 4 4 3 3 3 3
Wind_Direction
327 333 319 316 314 314 315 341 347 351 347 346 342 341 339 337 335 332 329 328 327 324 325 320 320 325 343 1 257 295 343 342 3 40 49 27 59 91 118 114 89 88 103 67 92 88 82
305 289 292 297 301 304 307 334 341 344 347 345 345 342 338 334 332 329 326 324 322 320 318 314 318 321 358 287 257 10 340 339 26 34 29 44 115 177 98 85 91 94 103 99 72 81 74
303 301 273 278 288 295 337 331 327 331 341 343 343 341 340 335 331 327 323 319 315 311 307 308 317 315 53 231 350 325 305 288 280 102 30 156 137 96 118 100 83 120 104 101 23 344 106
304 317 285 274 281 286 299 297 304 312 327 335 337 339 338 334 329 324 319 314 306 302 292 301 308 272 252 259 289 319 285 327 267 207 182 209 153 96 71 120 41 85 58 99 10 357 6
284 300 302 277 283 282 306 273 289 294 307 321 329 333 334 333 327 320 315 309 301 292 274 281 13 53 278 316 349 301 217 286 320 4 70 89 75 74 34 87 59 17 125 108 64 9 120
320 294 290 295 292 276 292 308 324 314 283 302 324 329 331 330 327 322 318 305 291 312 18 118 329 25 283 280 294 317 310 349 60 19 36 44 50 72 33 95 173 167 111 48 80 21 71
2 354 327 286 293 301 276 295 318 322 316 320 325 330 330 328 327 325 334 7 21 356 27 202 198 252 282 289 302 348 11 19 42 49 73 24 65 87 280 188 123 109 102 108 97 143 69
353 354 355 321 301 293 289 290 299 314 318 317 320 329 331 327 323 324 335 69 75 270 313 255 239 270 247 260 352 335 15 75 63 81 57 40 64 310 88 95 105 105 111 90 104 33 94
347 348 348 356 344 341 320 307 302 301 312 301 316 328 332 329 319 21 351 53 309 332 144 293 209 182 221 142 249 308 47 83 85 59 37 107 31 97 109 92 101 54 119 169 138 130 64
346 341 340 337 346 360 347 324 314 303 315 298 317 329 335 334 42 329 335 328 324 220 57 265 215 253 127 118 313 267 27 118 53 139 101 79 2 96 78 75 83 83 124 116 125 98 149
348 340 333 326 327 332 344 355 312 299 301 296 311 331 337 34 277 320 322 326 304 59 29 226 175 115 114 128 145 311 322 44 122 123 89 246 108 87 68 122 101 134 119 113 117 94 99
335 337 333 326 322 317 327 344 347 309 292 293 302 326 343 349 310 268 321 308 38 46 259 185 137 150 104 89 122 240 18 51 116 70 46 96 84 70 132 45 69 138 76 51 53 83 46
316 321 330 334 318 318 313 335 340 351 324 288 292 310 320 211 260 338 333 36 49 134 289 191 170 145 132 147 158 157 151 117 138 109 88 30 348 0 98 75 44 74 74 44 19 13 212
323 318 316 331 335 327 322 316 333 343 340 328 292 328 278 221 251 10 1 59 103 231 207 110 124 110 159 146 200 135 121 142 62 92 124 142 193 176 158 141 161 106 146 151 173 183 221
326 316 313 317 325 329 336 320 320 339 339 337 350 324 286 263 175 129 82 94 206 213 184 157 83 111 194 197 143 135 160 188 201 174 130 139 49 117 93 114 115 181 104 162 106 22 77
319 316 307 306 315 320 324 331 329 328 334 338 71 338 258 297 159 94 87 230 239 235 330 174 171 148 169 183 141 151 170 196 194 213 146 197 112 153 151 92 33 121 145 84 2 122 258
313 312 306 300 301 305 313 318 323 319 331 336 22 342 267 148 132 97 182 227 273 251 244 197 203 154 175 176 156 175 193 202 177 142 73 141 104 218 104 178 164 125 108 57 106 115 160
306 306 306 298 293 291 299 309 317 316 334 302 116 287 298 97 86 328 184 200 287 285 289 278 249 178 171 164 140 181 183 210 174 152 137 124 117 130 174 260 177 143 159 137 119 251 99
303 304 304 302 288 286 289 297 308 300 346 327 251 236 326 91 175 234 269 272 268 301 318 328 275 66 165 169 130 161 159 332 161 147 160 179 60 91 6 357 359 184 173 118 110 104 201
300 302 297 295 287 272 275 278 293 312 339 291 261 227 320 200 168 169 171 229 219 236 273 299 286 278 143 120 26 151 129 68 79 107 97 88 124 152 181 201 151 182 156 163 131 136 170
302 297 292 291 283 262 262 273 274 302 167 320 251 243 190 199 200 187 189 254 186 210 232 191 286 250 87 102 62 122 106 116 33 112 69 108 145 151 183 208 148 171 172 178 192 166 168
302 298 292 293 293 268 247 255 259 280 148 183 289 288 263 227 165 201 191 218 199 205 195 229 214 301 172 162 179 197 140 175 175 121 106 19 150 95 341 81 202 229 200 194 205 181 254
300 295 288 288 287 274 255 240 245 233 142 141 254 308 295 204 185 190 209 215 207 171 268 243 228 234 171 244 220 225 147 133 165 148 145 133 134 108 235 335 93 317 212 193 202 192 189
295 292 283 280 277 276 266 234 232 241 174 157 301 348 312 294 209 204 197 206 225 217 227 314 205 114 309 121 94 46 58 67 68 53 123 135 111 86 167 52 349 242 278 203 208 202 210
292 284 278 269 271 269 265 249 230 228 198 147 140 187 234 276 342 298 226 210 224 226 226 244 267 192 159 47 64 43 356 28 331 56 72 91 121 102 137 187 285 266 197 172 175 246 213
293 287 281 277 280 273 272 267 251 223 219 147 167 145 234 131 240 22 323 236 170 175 181 230 247 142 67 81 108 161 181 166 192 93 39 67 56 110 113 143 203 241 298 150 120 284 220
293 288 286 280 276 277 274 271 270 233 224 160 147 149 203 276 270 206 255 327 337 154 164 202 188 172 145 139 117 165 212 174 163 157 159 117 31 144 148 189 283 236 208 185 107 237 329
289 286 281 279 275 273 269 269 267 245 231 163 174 168 171 253 277 274 164 196 340 334 134 339 69 326 59 170 157 209 166 203 132 157 168 152 142 179 90 83 267 174 101 171 219 288 274
278 280 280 279 276 272 269 266 260 258 239 178 154 169 147 209 256 300 283 268 207 215 265 295 295 260 202 145 213 106 153 132 149 192 170 183 174 175 178 203 240 214 193 201 179 243 285